Location: Karcze
(52.0945°N, 22.4786°E)
Time: 12:40:36
(UTC+00:00)

Meteor 2-4 Rocket - Pass Details

Date: 14 July 2020
Orbit: 799 x 908 km, 81.2° (Epoch: 07 August)

Event Time Altitude Azimuth Distance (km) Brightness Sun altitude
Rises 00:12:36 0° 346° (NNW) 3,550 7.8 -13.3°
Reaches altitude 10° 00:15:05 10° 345° (NNW) 2,606 7.0 -13.2°
Maximum altitude 00:21:02 77° 260° (W) 934 3.8 -12.8°
Enters shadow 00:26:30 12° 176° (S) 2,415 5.6 -12.4°
